Retour au catalogue

FENGYUN 1C DEB

ActifSSO
NORAD 30505·DEBRIS·🇨🇳 China

Lancé May 10, 1999 depuis Taiyuan Satellite Launch Center

Loading…

Prochains Passages (prochaines 24 heures)

TLE

FraisSource: Space-Track

Époque: Sep 14, 2026, 12:17 UTC

1 30505U 99025AHT 26257.51202514  .00002114  00000-0  92851-3 0  9996
2 30505  98.9163 345.6544 0064240 169.7873 314.5879 14.23563699  8372

Suivez FENGYUN 1C DEB en temps réel avec AllMySat

Download on the App Store